Naples, FL

2:48 PM EDT on April 29, 2017 (GMT -0400)
Naples Municipal

Weather History for KAPF - January, 2014

Change the Weather History Date:

Friday, January 3, 2014

  Actual Average Record
Temperature  
Mean Temperature 60 °F 65 °F  
Max Temperature 70 °F 75 °F 86 °F (1973)
Min Temperature 49 °F 54 °F 34 °F (1979)
Degree Days  
Heating Degree Days 5 3  
Month to date heating degree days 5 9  
Since 1 July heating degree days 13 87  
Cooling Degree Days 0 3  
Month to date cooling degree days 19 9  
Year to date cooling degree days 19 9  
Growing Degree Days 10 (Base 50)    
Moisture  
Dew Point 47 °F    
Average Humidity 67    
Maximum Humidity 97    
Minimum Humidity 36    
Precipitation  
Precipitation 0.00 in 0.04 in 1.30 in (1996)
Month to date precipitation 0.17 0.15  
Year to date precipitation 0.17 0.15  
Snow  
Snow 0.00 in - - ()
Month to date snowfall 0.0  
Since 1 July snowfall 0.0  
Snow Depth 0.00 in    
Sea Level Pressure  
Sea Level Pressure 30.08 in    
Wind  
Wind Speed 11 mph (NNE)    
Max Wind Speed 21 mph    
Max Gust Speed 31 mph    
Visibility 10 miles    
Events      
T = Trace of Precipitation, MM = Missing Value Source: NWS Daily Summary

Daily Weather History Graph

Daily Weather History Graph

Search for Another Location

Airport or City:

Trip Planner

Search our weather history database for the weather conditions in past years. The results will help you decide how hot, cold, wet, or windy it might be!

Date:

Astronomy

Jan. 03, 2014 Rise Set
Actual Time 7:15 AM EST 5:48 PM EST
Civil Twilight 6:49 AM EST 6:13 PM EST
Nautical Twilight 6:21 AM EST 6:42 PM EST
Astronomical Twilight 5:53 AM EST 7:10 PM EST
Moon 8:56 AM EST (1/3) 8:37 PM EST (1/3)
Length of Visible Light 11h 23m
Length of Day
10h 33m
Waxing Crescent, 8% of the Moon is Illuminated
Jan 3
Waxing Crescent
Jan 7
First Quarter
Jan 15
Full
Jan 24
Last Quarter
Jan 30
New

Hourly Weather History & Observations

Time (EST) Temp. Dew Point Humidity Pressure Visibility Wind Dir Wind Speed Gust Speed Precip Events Conditions
12:53 AM 69.1 °F 68.0 °F 96% 29.94 in 10.0 mi West 4.6 mph - N/A   Clear
1:44 AM 68.0 °F 64.4 °F 88% 29.96 in 10.0 mi NW 16.1 mph 27.6 mph N/A   Mostly Cloudy
1:53 AM 68.0 °F 64.9 °F 90% 29.95 in 10.0 mi NNW 11.5 mph 24.2 mph N/A   Overcast
2:02 AM 66.2 °F 64.4 °F 94% 29.96 in 10.0 mi NNW 15.0 mph 23.0 mph N/A   Overcast
2:36 AM 64.4 °F 59.0 °F 83% 29.98 in 10.0 mi NNW 15.0 mph 26.5 mph N/A   Overcast
2:53 AM 64.0 °F 57.9 °F 80% 29.98 in 10.0 mi NNW 9.2 mph 24.2 mph N/A   Overcast
3:22 AM 62.6 °F 55.4 °F 77% 29.99 in 10.0 mi North 11.5 mph 19.6 mph N/A   Overcast
3:53 AM 62.1 °F 55.0 °F 78% 29.99 in 10.0 mi North 8.1 mph - N/A   Partly Cloudy
4:53 AM 61.0 °F 52.0 °F 72% 30.01 in 10.0 mi North 11.5 mph 19.6 mph N/A   Scattered Clouds
5:53 AM 59.0 °F 48.0 °F 67% 30.03 in 10.0 mi North 12.7 mph 26.5 mph N/A   Scattered Clouds
6:53 AM 55.9 °F 46.9 °F 72% 30.06 in 10.0 mi North 9.2 mph 20.7 mph N/A   Clear
7:53 AM 55.0 °F 46.0 °F 72% 30.10 in 10.0 mi North 8.1 mph - N/A   Clear
8:53 AM 54.0 °F 34.0 °F 47% 30.14 in 10.0 mi North 13.8 mph 28.8 mph N/A   Clear
9:53 AM 55.0 °F 39.0 °F 55% 30.13 in 10.0 mi NNE 10.4 mph 17.3 mph N/A   Clear
10:53 AM 55.9 °F 37.9 °F 51% 30.13 in 10.0 mi NNE 13.8 mph 19.6 mph N/A   Clear
11:53 AM 57.9 °F 39.9 °F 51% 30.12 in 10.0 mi NNE 9.2 mph - N/A   Clear
12:53 PM 59.0 °F 42.1 °F 53% 30.11 in 10.0 mi NE 11.5 mph - N/A   Clear
1:53 PM 60.1 °F 37.9 °F 44% 30.10 in 10.0 mi NE 11.5 mph 18.4 mph N/A   Clear
2:53 PM 59.0 °F 33.1 °F 38% 30.09 in 10.0 mi NE 13.8 mph - N/A   Clear
3:53 PM 60.1 °F 34.0 °F 38% 30.11 in 10.0 mi NNE 15.0 mph 25.3 mph N/A   Scattered Clouds
4:53 PM 55.9 °F 39.0 °F 53% 30.13 in 10.0 mi NE 13.8 mph 20.7 mph N/A   Scattered Clouds
5:53 PM 53.1 °F 43.0 °F 69% 30.15 in 10.0 mi NE 13.8 mph - N/A   Clear
6:53 PM 52.0 °F 43.0 °F 71% 30.16 in 10.0 mi NE 11.5 mph - N/A   Clear
7:53 PM 51.1 °F 43.0 °F 74% 30.19 in 10.0 mi NE 10.4 mph - N/A   Clear
8:53 PM 50.0 °F 42.1 °F 74% 30.21 in 10.0 mi NNE 11.5 mph - N/A   Clear
9:53 PM 50.0 °F 42.1 °F 74% 30.19 in 10.0 mi NE 10.4 mph 18.4 mph N/A   Clear
10:53 PM 50.0 °F 43.0 °F 77% 30.19 in 10.0 mi NE 11.5 mph - N/A   Clear
11:53 PM 50.0 °F 44.1 °F 80% 30.17 in 10.0 mi NE 12.7 mph - N/A   Clear